Probability
0 0 1 2 2 1 0 0 0 0 0 0 0 0 0 0 0 0 1 7 17 25 32 45 54 56 57 57 56 52 48 45 40 32 26 23 20 15 10 7 5 3 1 0 0 0 0 0 0
0 0 1 1 1 0 0 0 0 0 0 0 0 0 0 0 0 0 2 10 22 29 35 46 55 57 57 57 57 54 49 45 39 32 27 24 21 15 11 8 6 2 0 0 0 0 0 0 0
0 0 1 1 0 0 0 0 0 0 0 0 0 0 0 0 0 1 4 12 24 32 38 48 57 60 58 57 58 56 51 44 38 34 29 25 20 15 11 9 6 3 1 0 0 0 0 0 0
1 1 1 1 0 0 0 0 0 0 0 0 0 0 0 0 0 1 4 11 21 31 40 51 61 63 60 58 58 58 52 44 39 36 31 24 19 15 12 9 6 3 1 0 0 0 0 0 0
2 2 1 1 0 0 0 0 0 0 0 0 0 0 0 0 1 2 4 10 20 30 40 51 61 66 64 59 58 57 53 45 40 37 31 24 19 15 12 9 6 3 1 0 0 0 0 0 0
1 1 1 0 0 0 0 0 0 0 0 0 0 0 0 0 1 2 4 11 21 29 37 46 55 64 67 62 58 56 52 46 42 38 30 24 21 16 11 8 5 2 0 0 0 0 0 0 0
0 0 0 0 0 0 0 0 0 0 0 0 0 0 0 0 1 3 5 11 21 28 35 41 47 57 63 60 56 54 50 45 42 37 29 23 20 15 11 7 3 1 0 0 0 0 0 0 0
0 0 0 0 0 0 0 0 0 0 0 0 0 0 0 1 2 4 6 12 21 28 32 37 42 48 53 52 49 46 42 39 37 31 24 18 16 13 9 5 2 0 0 0 0 0 0 0 0
0 0 0 0 0 0 0 0 0 0 0 0 0 0 0 1 3 5 8 13 22 28 31 35 40 44 45 43 40 37 34 31 27 22 17 13 10 8 5 2 0 0 0 0 0 0 0 0 0
0 0 0 0 0 0 0 0 0 0 0 0 0 0 1 2 3 5 9 15 21 26 29 33 39 42 41 38 35 32 28 23 18 14 12 10 7 4 1 0 0 0 0 0 0 0 0 0 0
0 0 0 0 0 0 0 0 0 0 0 0 0 0 1 2 3 4 9 15 20 24 26 30 36 39 38 36 34 29 24 20 14 11 10 8 5 1 0 0 0 0 0 0 0 0 0 0 0
0 0 0 0 0 0 0 0 0 0 0 0 0 0 0 1 2 3 7 13 18 21 24 28 33 35 35 34 32 27 22 18 14 11 10 8 4 1 0 0 0 0 0 0 0 0 0 0 0
0 0 0 0 0 0 0 0 0 0 0 0 0 0 0 0 1 2 6 12 17 19 23 28 31 32 30 30 30 26 20 16 14 12 10 6 3 1 0 0 0 0 0 0 0 0 0 0 0
0 0 0 0 0 0 0 0 0 0 0 0 0 0 0 0 0 1 5 11 15 17 22 28 30 28 25 26 28 25 19 15 13 12 10 6 2 0 0 0 0 0 0 0 0 0 0 0 0
0 0 0 0 0 0 0 0 0 0 0 0 0 0 0 1 0 1 5 10 13 16 21 26 27 23 19 21 23 22 17 13 11 12 11 6 3 1 0 0 0 0 0 0 0 0 0 0 0
0 0 0 0 0 0 0 0 0 0 0 0 0 0 0 0 1 3 7 10 11 15 20 24 22 18 14 14 16 17 15 11 9 10 10 7 3 1 0 0 0 0 0 0 0 0 0 0 0
0 0 0 0 0 0 0 0 0 0 0 0 0 0 0 0 1 5 9 11 12 14 19 20 17 13 9 8 10 12 12 11 8 8 8 6 3 1 0 0 0 0 0 0 0 0 0 0 0
0 0 0 0 0 0 0 0 0 0 0 0 0 0 0 0 1 5 8 11 12 14 17 18 15 10 7 7 8 9 10 10 8 6 7 6 3 1 0 0 0 0 0 0 0 0 0 0 0
0 0 0 0 0 0 0 0 0 0 0 0 0 0 0 0 1 3 7 10 12 13 15 16 12 9 8 8 7 7 9 10 8 6 6 5 2 1 0 0 0 0 0 0 0 0 0 0 0
0 0 0 0 0 0 0 0 0 0 0 0 0 0 0 0 1 3 6 10 12 12 11 12 10 8 9 7 5 5 8 9 8 5 4 3 2 0 0 0 0 0 0 0 0 0 0 0 0
0 0 0 0 0 0 0 0 0 0 0 0 0 0 0 0 1 3 7 11 12 10 8 8 8 8 8 5 4 4 6 8 7 4 1 1 1 1 0 0 0 0 0 0 0 0 0 0 0
0 0 0 0 0 0 0 0 0 0 0 0 0 0 0 0 1 3 6 10 10 8 6 5 7 8 7 5 3 4 5 6 6 4 1 1 1 1 0 0 0 0 0 0 0 0 0 0 0
0 0 0 0 0 0 0 0 0 0 0 0 0 0 0 0 1 2 4 7 8 6 4 4 6 7 6 4 3 3 4 5 6 5 2 1 0 0 0 0 0 0 0 0 0 0 0 0 0
0 0 0 0 0 0 0 0 0 0 0 0 0 0 0 0 0 1 2 4 5 5 4 3 4 5 4 3 2 2 3 4 6 5 3 1 0 0 0 0 0 0 0 0 0 0 0 0 0
0 0 0 0 0 0 0 0 0 0 0 0 0 0 0 0 0 0 1 2 4 5 4 3 4 4 3 2 1 2 4 5 6 4 2 0 0 0 0 0 0 0 0 0 0 0 0 0 0
0 0 0 0 0 0 0 0 0 0 0 0 0 0 0 0 0 0 0 0 2 3 3 3 4 4 3 1 1 2 3 4 4 4 2 0 0 0 0 0 0 0 0 0 0 0 0 0 0
0 0 0 0 0 0 0 0 0 0 0 0 0 0 0 0 0 0 0 0 0 1 1 2 3 4 3 1 1 2 3 3 2 1 1 0 0 0 0 0 0 0 0 0 0 0 0 0 0
0 0 0 0 0 0 0 0 0 0 0 0 0 0 0 0 0 0 0 0 0 0 0 1 2 3 3 3 2 3 3 3 1 0 0 0 0 0 0 0 0 0 0 0 0 0 0 0 0
0 0 0 0 0 0 0 0 0 0 0 0 0 0 0 0 0 0 0 0 0 0 0 0 1 2 2 2 2 3 4 3 2 0 0 0 0 0 0 0 0 0 0 0 0 0 0 0 0
0 0 0 0 0 0 0 0 0 0 0 0 0 0 0 0 0 0 0 0 0 0 0 0 0 0 1 1 1 2 3 3 1 0 0 0 0 0 0 0 0 0 0 0 0 0 0 0 0
Wind_Speed
10 9 7 3 4 8 15 12 10 9 8 5 3 4 5 6 2 2 4 5 10 13 16 19 19 18 18 18 18 18 18 18 18 17 17 17 16 16 16 16 15 15 15 16 16 16 16 15 15
9 8 5 4 7 12 13 13 14 11 8 4 3 4 5 5 2 5 5 7 10 12 14 17 19 18 18 18 18 18 18 18 18 17 17 17 17 16 16 15 15 15 15 15 15 15 15 15 14
11 8 5 5 11 15 11 6 8 8 7 5 4 4 5 3 1 2 6 9 9 10 11 16 20 19 18 18 19 19 18 18 18 17 17 17 17 17 16 16 15 15 15 15 15 15 15 14 14
5 4 5 10 20 18 15 11 8 8 7 5 4 4 2 3 2 3 6 7 9 9 9 14 20 20 19 18 18 18 18 18 18 18 17 17 17 17 16 15 15 15 15 15 15 15 14 14 13
4 4 9 15 22 18 14 12 12 10 8 7 5 6 5 3 2 4 4 6 7 8 9 13 20 20 19 19 18 18 18 18 18 18 18 17 17 16 16 15 15 16 16 15 14 14 14 13 12
4 5 10 17 20 17 14 11 11 11 11 8 6 8 6 3 1 3 3 4 6 8 9 11 17 19 19 19 18 18 18 18 18 18 18 17 17 16 16 15 15 16 15 15 14 14 13 12 11
5 7 14 18 17 15 13 9 10 10 11 8 5 7 6 4 1 2 2 3 5 7 8 9 11 15 17 18 18 18 18 18 18 18 17 17 17 17 16 15 15 15 15 15 14 13 13 12 10
5 5 13 16 17 15 9 8 9 10 10 8 6 6 6 2 2 0 1 2 4 6 7 9 9 11 11 12 16 17 17 17 17 16 15 15 15 15 15 14 14 15 15 14 13 12 12 11 10
6 8 14 14 13 11 9 11 10 9 10 10 8 8 5 2 2 1 2 2 4 6 7 9 10 10 10 10 13 14 15 16 15 14 16 14 9 9 10 12 13 14 14 14 13 12 11 10 8
6 11 16 12 11 12 12 12 12 9 12 12 9 6 3 1 3 4 5 6 6 7 7 8 10 10 10 10 9 8 9 10 10 9 11 8 7 7 9 12 13 13 13 13 13 12 11 7 3
8 13 14 15 14 14 14 14 12 12 14 13 10 7 6 4 5 6 7 7 8 8 8 8 8 9 10 7 8 5 6 7 9 11 10 8 7 6 7 5 7 7 9 6 8 8 4 4 4
11 15 16 15 14 14 14 13 13 15 16 14 12 9 8 8 8 9 8 8 7 8 7 8 8 8 9 8 7 7 6 7 7 9 11 8 6 6 7 5 5 5 4 5 5 3 4 4 5
13 14 15 15 14 15 15 15 15 17 16 15 12 11 11 11 10 9 9 8 8 9 8 8 8 8 9 8 7 8 7 7 8 8 9 9 7 7 7 6 6 5 4 5 5 4 4 4 4
10 13 16 16 15 14 16 16 15 16 13 13 12 11 12 12 11 10 9 9 10 10 10 8 8 8 8 8 7 7 7 7 8 8 9 10 8 7 7 7 6 5 5 5 4 5 4 3 3
12 14 15 15 14 11 11 15 15 14 11 12 11 11 12 12 11 10 10 10 9 9 9 9 9 9 9 9 9 7 7 6 7 8 10 10 9 9 7 6 6 6 6 6 4 4 3 3 3
10 10 10 10 9 7 7 15 12 10 11 12 10 11 11 12 11 10 9 8 8 9 9 9 8 9 9 8 8 6 7 7 6 7 9 10 10 10 8 6 6 6 5 5 4 3 3 3 3
6 7 11 11 7 7 9 15 12 10 11 11 10 10 10 10 10 9 8 8 8 9 9 9 9 9 9 8 7 7 7 7 6 6 8 10 11 11 8 7 6 7 5 4 4 3 3 3 3
8 10 12 12 8 9 12 15 13 9 10 10 9 9 9 10 9 8 7 7 7 8 9 9 8 9 9 7 6 5 6 6 5 6 8 11 10 11 9 7 8 7 6 5 4 4 4 3 3
11 12 14 13 11 10 12 15 15 11 9 8 8 8 9 10 9 7 6 6 6 7 8 9 9 9 8 7 7 7 7 7 6 6 10 11 11 11 9 7 8 7 6 6 6 5 5 3 3
11 12 13 12 9 10 12 16 14 11 9 8 8 8 9 8 7 5 4 5 7 7 8 9 10 10 10 8 7 6 6 6 6 6 8 11 11 11 10 9 8 7 6 7 7 5 4 3 4
11 11 11 13 13 9 10 11 10 8 8 8 6 6 6 7 5 4 5 5 6 6 8 8 9 10 10 9 6 5 5 5 5 7 7 9 11 11 10 10 8 8 7 7 7 7 7 5 4
11 9 11 12 10 6 4 8 8 7 7 5 3 3 4 5 4 3 3 4 5 6 5 7 8 9 10 10 9 10 8 7 7 7 7 9 11 11 11 11 10 9 7 7 7 7 5 6 5
10 10 11 12 11 10 8 7 6 4 4 1 2 3 3 4 3 3 3 3 3 5 5 4 6 8 10 10 10 10 8 7 6 7 9 10 10 11 12 11 10 9 8 8 8 7 7 6 5
8 8 11 9 6 6 6 5 4 2 2 1 2 2 3 2 2 2 2 1 1 2 4 4 5 7 8 10 11 11 11 10 10 10 10 10 8 9 12 12 10 10 8 9 8 8 8 7 6
4 4 4 2 3 5 4 4 4 1 1 1 2 2 2 2 1 1 1 1 1 1 3 4 5 6 8 10 10 11 11 12 13 11 10 10 9 8 12 12 11 9 9 9 8 8 8 8 7
4 3 2 3 3 4 4 4 2 1 2 2 3 3 4 4 3 2 1 1 2 2 2 3 5 6 7 9 10 10 10 8 9 10 9 11 9 10 11 12 11 11 10 10 9 7 8 7 8
3 3 4 5 6 5 5 4 3 1 3 3 4 4 4 4 3 2 2 2 1 2 2 4 4 5 7 7 8 9 10 9 9 9 9 9 9 10 13 12 12 11 11 11 10 7 8 8 8
5 4 2 2 4 5 5 4 3 1 3 3 3 4 4 4 4 3 2 2 2 1 2 3 3 4 5 6 6 6 9 10 9 9 10 9 11 11 13 13 13 12 11 11 10 8 8 9 8
4 4 4 4 4 4 4 3 2 3 3 3 3 4 5 5 5 4 4 3 2 2 2 3 3 3 3 4 5 5 6 9 9 9 9 10 10 12 13 14 13 13 12 12 11 10 10 10 9
5 5 4 4 5 4 5 5 2 2 3 4 4 4 4 4 4 4 4 4 3 3 2 3 3 2 3 4 4 4 5 7 8 9 10 10 10 11 12 12 13 13 12 12 12 12 11 11 11
Wind_Direction
293 265 244 235 236 233 240 238 248 256 255 262 282 279 283 276 280 115 158 132 115 134 146 157 160 161 160 158 155 152 150 148 146 145 141 138 136 133 130 127 125 122 119 115 111 108 105 101 99
284 265 238 227 231 234 240 232 243 252 266 289 301 290 279 278 323 105 131 116 124 135 145 159 160 162 161 160 157 154 152 150 148 146 144 141 139 136 133 131 129 125 121 117 114 110 107 104 102
269 251 233 226 229 232 240 237 239 245 252 267 268 267 265 270 315 112 117 121 124 132 145 157 160 162 163 162 159 156 154 152 150 148 146 144 142 140 137 134 131 127 124 120 116 114 111 108 105
264 225 239 238 240 238 249 267 277 273 261 253 267 263 252 274 3 74 108 120 126 134 143 153 161 164 165 164 161 159 157 156 154 152 149 147 146 143 139 135 133 130 127 123 120 118 116 113 110
246 232 231 238 244 248 253 264 278 277 265 256 254 258 267 297 77 100 119 127 135 140 145 154 163 166 166 166 164 162 159 157 156 153 151 149 147 144 139 137 135 133 129 126 124 123 119 116 114
242 229 234 240 245 248 254 260 268 272 272 263 249 258 262 260 163 111 120 135 143 142 145 154 163 167 167 167 166 163 161 159 156 154 153 151 148 145 143 141 138 136 133 129 128 126 124 120 117
245 248 245 251 258 257 259 271 272 276 278 277 278 263 257 254 95 87 117 142 142 144 148 155 165 167 170 170 168 164 162 160 158 156 154 151 148 148 147 144 143 141 137 134 132 131 128 124 121
258 262 253 250 255 258 271 280 275 288 285 287 278 257 256 281 345 27 135 155 146 153 157 161 167 166 167 170 168 164 162 161 159 156 151 147 147 147 146 143 144 143 141 138 136 135 133 130 128
257 245 246 249 260 272 290 291 290 296 278 277 276 281 284 310 316 215 194 191 169 169 169 168 171 169 167 169 169 164 161 161 158 153 147 144 146 144 144 141 144 146 145 143 141 140 137 134 137
224 241 249 264 275 284 287 285 289 286 275 273 274 284 299 267 259 225 209 204 191 185 183 179 174 170 167 169 165 168 165 160 159 155 154 154 150 148 144 140 144 145 146 147 147 147 145 140 149
242 250 265 274 280 285 285 283 281 278 269 266 268 269 275 260 246 236 219 212 198 190 192 186 182 173 167 163 165 168 165 164 165 163 164 156 147 141 134 140 141 142 145 146 150 151 165 171 163
267 265 267 273 282 280 278 278 275 267 268 272 270 266 254 247 237 234 225 217 208 195 195 190 185 178 168 165 168 168 171 170 167 167 165 157 148 145 146 150 153 154 155 152 156 172 178 171 164
267 267 269 272 277 276 274 270 274 268 270 274 269 266 253 243 238 236 230 222 212 205 197 195 185 181 173 167 169 172 175 172 167 166 166 158 151 152 151 156 157 160 155 157 166 175 172 173 172
276 282 280 277 272 268 267 268 267 263 268 270 267 262 254 245 240 234 229 225 213 206 196 193 185 182 176 173 170 169 170 172 167 164 164 157 152 153 153 155 157 158 156 161 167 173 167 168 163
284 280 274 264 258 256 265 263 252 263 274 270 263 260 259 252 243 233 224 220 214 208 197 195 188 181 180 178 175 169 164 169 170 165 163 158 153 154 153 153 156 158 158 161 169 172 159 156 153
267 263 263 265 258 258 253 261 262 268 272 270 264 258 257 255 245 235 225 222 210 205 202 198 194 185 182 181 176 168 166 165 171 168 162 160 157 155 153 153 159 158 157 160 164 158 152 150 153
240 262 273 284 266 268 257 270 274 267 264 264 259 253 252 256 247 237 219 215 209 203 198 197 191 189 183 179 175 168 165 162 166 166 161 163 161 158 156 157 161 158 155 158 164 155 151 151 161
290 285 280 282 283 276 268 274 280 270 261 264 264 260 251 253 245 237 216 205 207 202 193 194 193 192 177 173 170 164 165 164 165 171 166 163 163 161 157 157 163 158 155 161 161 157 158 156 163
289 281 282 284 284 278 274 277 277 270 264 260 257 261 256 258 247 231 214 199 200 197 191 195 194 189 176 175 174 171 173 167 168 174 169 166 163 162 159 161 164 161 162 167 166 159 163 163 148
282 281 282 291 294 290 276 275 272 258 249 248 251 252 254 263 258 223 209 197 199 199 196 198 193 188 183 183 178 171 165 170 167 169 174 170 166 165 163 163 166 166 163 169 175 161 158 167 155
282 279 287 294 303 277 275 272 260 254 250 242 245 246 254 261 258 240 209 198 197 203 199 201 194 189 186 179 171 162 163 165 170 174 180 175 168 166 165 167 167 170 167 172 178 170 164 168 174
286 289 297 297 299 283 271 289 274 257 252 236 246 255 266 271 260 265 240 206 201 201 206 202 195 195 188 179 177 176 181 185 182 172 176 177 174 171 170 171 172 173 172 173 179 174 165 161 174
281 303 297 285 280 278 261 262 271 248 257 260 281 285 273 263 244 245 253 233 220 195 191 207 200 197 187 184 184 183 188 188 173 169 175 182 179 178 175 175 175 176 177 178 179 174 171 171 173
295 307 290 269 259 258 243 243 273 246 249 288 298 329 314 276 244 234 266 274 251 199 188 203 203 198 194 192 190 191 192 188 178 175 181 182 179 180 179 179 179 180 180 182 181 178 177 179 181
305 326 314 297 236 246 274 266 262 254 92 46 11 354 334 337 317 230 266 247 264 233 208 207 209 206 200 200 199 198 196 193 188 180 183 183 179 180 184 183 181 182 184 183 180 180 182 182 185
268 252 263 289 275 292 288 251 256 124 86 49 39 27 16 3 1 358 295 261 234 244 245 230 219 216 207 204 208 204 198 195 192 186 184 188 183 181 180 183 183 184 184 185 184 184 185 183 188
270 250 266 278 278 270 248 242 244 76 46 32 22 27 14 354 356 353 348 321 262 231 238 247 236 226 217 208 213 208 200 197 194 188 188 190 183 178 178 184 187 187 186 186 184 190 188 185 190
241 274 300 268 279 272 263 260 269 42 14 12 15 8 1 356 358 352 340 325 320 282 260 258 248 241 230 217 214 218 207 202 195 190 194 193 186 179 177 183 188 188 188 187 186 188 187 187 191
229 238 243 257 255 270 280 274 337 28 29 22 20 1 356 359 359 355 346 335 331 339 307 267 249 252 246 237 225 220 217 206 198 194 197 194 188 181 181 183 185 188 189 188 189 191 188 191 192
240 241 231 247 265 258 269 273 321 24 27 6 356 351 352 350 346 345 345 344 342 344 328 309 292 269 261 252 246 224 225 210 201 201 198 193 192 187 182 182 184 188 189 189 190 193 192 193 195